KSEEKPSP

Guest
Details From KSEE - Gillespie Field
To KPSP - Palm Springs Intl
Flight Number -
Tags generated
Created
Modified
Stats Distance 65 nm / 121 km
Max Altitude 2,500 ft / 762 m
Waypoints 3
Social Downloads 1
Likes 0
Share VATSIM

Download

Looking for another format? Having issues loading an existing format? Contact us
Advertisement - Login to hide

Notes

Basic altitude profile: - Ascent Rate: 2500ft/min - Ascent Speed: 250kts - Cruise Altitude: 35000ft - Cruise Speed: 420kts - Descent Rate: 1500ft/min - Descent Speed: 250kts Options: - Use NATs: yes - Use PACOTS: yes - Use low airways: yes - Use high airways: no

Route

KSEE HAPPE KPSP

ID Type Via Altitude Latitude Longitude Leg Dist Tot Dist Heading (true) Name
O KSEE APT - 0 ft / 0 m 32.82611˚ -116.97235˚ - 0 nm - Gillespie Field
HAPPE FIX - 2,500 ft / 762 m 33.67163˚ -116.65659˚ 53 nm 53 nm 17° / 17° -
O KPSP APT - 0 ft / 0 m 33.82968˚ -116.50622˚ 12 nm 65 nm 38° / 38° Palm Springs Intl

Altitude Profile

Advertisement - Login to hide

KSEE

Details ICAO KSEE (SEE)
Name Gillespie Field
Region United States
Timezone America/Los_Angeles (UTC-8.0)
Stats Elevation 388 ft / 118 m (AMSL)
Location 32.826113° -116.972351°
Runways 3
Magnetic Variation 11.496° E

METAR

KSEE 170147Z 00000KT 10SM SKC 14/09 A2972

Decode

TAF

Not found

Departure Runways

ID Width Length Bearing (true) Bearing (mag) Surface Threshold Offset Overrun Length
09L 98 ft / 30 m 5,333 ft / 1,625 m 102.13° 90.63° Asphalt 0 ft / 0 m 299 ft / 91 m
09R 59 ft / 18 m 2,733 ft / 833 m 102.14° 90.64° Asphalt 0 ft / 0 m 230 ft / 70 m
17 98 ft / 30 m 4,157 ft / 1,267 m 179.62° 168.12° Asphalt 449 ft / 137 m 0 ft / 0 m
27L 59 ft / 18 m 2,733 ft / 833 m 282.14° 270.64° Asphalt 0 ft / 0 m 98 ft / 30 m
27R 98 ft / 30 m 5,333 ft / 1,625 m 282.14° 270.64° Asphalt 705 ft / 215 m 299 ft / 91 m
35 98 ft / 30 m 4,157 ft / 1,267 m 359.62° 348.12° Asphalt 686 ft / 209 m 0 ft / 0 m

KPSP

Details ICAO KPSP (PSP)
Name Palm Springs Intl
Region United States
Timezone America/Los_Angeles (UTC-8.0)
Stats Elevation 477 ft / 145 m (AMSL)
Location 33.829677° -116.506218°
Runways 2
Magnetic Variation 11.579° E

METAR

KPSP 170153Z VRB03KT 10SM FEW110 18/M02 A2973 RMK AO2 SLP068 T01781022

Decode

TAF

KPSP 162322Z 1700/1724 VRB06KT P6SM BKN150 FM170400 32008G16KT P6SM SCT150 FM170800 32012G22KT P6SM FEW150 FM171900 01015G25KT P6SM SKC

Decode

Destination Runways

ID Width Length Bearing (true) Bearing (mag) Surface Threshold Offset Overrun Length
13L 75 ft / 23 m 4,958 ft / 1,511 m 143.52° 131.94° Asphalt 0 ft / 0 m 151 ft / 46 m
13R 151 ft / 46 m 10,012 ft / 3,052 m 143.52° 131.94° Asphalt 2,999 ft / 914 m 200 ft / 61 m
31L 151 ft / 46 m 10,012 ft / 3,052 m 323.53° 311.95° Asphalt 1,499 ft / 457 m 200 ft / 61 m
31R 75 ft / 23 m 4,958 ft / 1,511 m 323.53° 311.95° Asphalt 0 ft / 0 m 151 ft / 46 m

Popular Alternatives